Regional Weather Roundup
Issued by NWS Grand Forks, ND

Home | Current Version | Previous Version | Graphics & Text | Print | Product List | Glossary On
Versions: 1 2 3 4 5 6 7 8 9 10 11 12 13 14 15 16 17 18 19 20 21 22 23 24 25 26 27 28 29 30 31 32 33 34 35 36 37 38 39 40 41 42 43 44 45 46 47 48 49 50
153
ASUS43 KFGF 261331
RWRFGF
PRAIRIE TO PINES  WEATHER ROUNDUP
NATIONAL WEATHER SERVICE EASTERN NORTH DAKOTA/GRAND FORKS ND
800 AM CDT MON SEP 26 2016

 **SATELLITE DATA USED TO AUGMENT SKY COVER AT AUTOMATED STATIONS**
 *****  WEATHER ACROSS EASTERN NORTH DAKOTA  *****

CITY           SKY/WX    TMP DP  RH WIND       PRES   REMARKS
GRAND FORKS    PTCLDY    47  38  71 W13       29.94S
GRAND FRKS AFB CLEAR     48  36  63 NW15G21   29.95S
DEVILS LAKE    CLEAR     44  38  79 W15       30.03S
FARGO          CLEAR     48  37  65 W15       29.98S
WAHPETON ARPT  SUNNY     46  36  66 W17G23    30.02R
$$

 ***** WEATHER ACROSS CENTRAL AND WESTERN NORTH DAKOTA  *****

CITY           SKY/WX    TMP DP  RH WIND       PRES   REMARKS
BISMARCK       CLEAR     40  34  79 W7        30.17S
MINOT          CLEAR     47  33  58 W16       30.12R
JAMESTOWN      CLEAR     43  37  79 W13       30.07R
MINOT AFB      CLEAR     43  34  71 NW14      30.11R
GARRISON         N/A     42  37  82 W9        30.15R
WILLISTON      CLEAR     39  35  86 S7        30.20S
DICKINSON      CLEAR     39  36  89 W7        30.19S
HETTINGER      CLEAR     39  36  89 W5        30.23R
$$

 *****  OTHER AIRPORT OBSERVATIONS IN OUR AREA  *****

CITY           SKY/WX    TMP DP  RH WIND       PRES   REMARKS
WALHALLA       FAIR      48  45  87 W17G25    29.93S
GRAFTON AIRPOR FAIR      48  39  71 W16       29.95R
VALLEY CITY AR FAIR      45  37  76 W17       30.06S
CANDO          FAIR      41  39  93 W14       30.05R
CAVALIER APRT  FAIR      48  37  66 W15       29.92S
GWINNER        FAIR      45  37  76 W15       30.06F
ROLLA          FAIR      46  32  57 NW14      30.03R
 ***** THE ABOVE OBSERVATIONS ARE NON NWS ARE NOT QUALITY
       CONTROLLED AND MAY MIS-REPORT RAIN FOR SNOW...
$$

  *****  WEATHER ACROSS NORTHERN MINNESOTA  *****

CITY           SKY/WX    TMP DP  RH WIND       PRES   REMARKS
FLAG ISLAND    CLOUDY    48  45  87 W25G36    29.70S
WARROAD        CLOUDY    48  45  87 W14G22    29.77S
ROSEAU         MOCLDY    46  43  87 W13G22    29.80S
HALLOCK        PTCLDY    48  39  71 W15G22    29.89S
THF RVR FALLS  CLEAR     46  38  73 W15       29.89S
BAUDETTE       LGT RAIN  48  43  82 NW17G25   29.73S
WASKISH        MOCLDY    48  43  81 W24G32    29.77S
CROOKSTON      CLEAR     48  39  71 NW18G24   29.92F
STEPHEN NDAWN    N/A     46  39  76 W13         N/A
GREENBUSH NDAW   N/A     46  39  76 W14         N/A
$$
  *****  WEATHER ACROSS CENTRAL AND WEST MINNESOTA  *****

CITY           SKY/WX    TMP DP  RH WIND       PRES   REMARKS
FOSSTON        PTCLDY    45  37  76 W16G25    29.90S
BEMIDJI        MOCLDY    46  39  76 W17G24    29.84S
PARK RAPIDS    CLEAR     47  36  65 W15       29.88S
ELBOW LAKE     FAIR      46  37  71 NW15G21   30.00S
WADENA         CLEAR     46  37  71 W14       29.92R
DETROIT LAKES  CLEAR     46  37  71 W16G25    29.95S
MOORHEAD       CLEAR     48  37  66 W14       29.99S
FERGUS FALLS   CLEAR     45  37  76 W13G18    30.02R
MORRIS MN      CLEAR     48  37  66 W18G24    30.00S
STAPLES        CLEAR     46  37  71 W14G20    29.91S
$$
  *****  WEATHER ELSEWHERE ACROSS MINNESOTA  *****

CITY           SKY/WX    TMP DP  RH WIND       PRES   REMARKS
DULUTH         LGT RAIN  48  45  89 W23G32    29.70S
INTRNTL FALLS  LGT RAIN  48  45  89 W16G25    29.65F
ELY            DRIZZLE   48  46  93 W13G23    29.60S
CLOQUET        CLOUDY    48  41  76 W17G24    29.75R
WHEATON        CLEAR     50  39  66 W12G17    30.05S
BRAINERD       PTCLDY    48  39  71 W10       29.88S
HIBBING        LGT RAIN  46  44  93 W13G23    29.71S
ALEXANDRIA     CLEAR     47  38  71 W17G28    29.98S
SAINT CLOUD    CLEAR     48  40  73 W15G21    29.93S
MINNEAPOLIS    PTCLDY    52  39  61 W14       29.95R
$$

  *****  WEATHER ACROSS SOUTH DAKOTA  *****

CITY           SKY/WX    TMP DP  RH WIND       PRES   REMARKS
SIOUX FALLS    PTCLDY    45  37  73 W7        30.16R
BROOKINGS      CLEAR     44  37  76 W10       30.13R
WATERTOWN      CLEAR     48  36  63 W12       30.10S
HURON          CLEAR     44  37  76 W9        30.17R
SISSETON         N/A     51  35  54 NW16      30.05S
ABERDEEN       CLEAR     41  35  79 W6        30.14S
MITCHELL       CLEAR     45  37  73 W9        30.20R
PIERRE         CLEAR     43  35  73 W5        30.20S
MOBRIDGE       CLEAR     45  37  73 NW12      30.16F
RAPID CITY     CLEAR     43  35  73 W6        30.27S
$$

  *****  SOME WEATHER IN NEARBY STATES *****

CITY           SKY/WX    TMP DP  RH WIND       PRES   REMARKS
GLASGOW MT     CLEAR     39  36  89 NW13      30.23R
GREAT FALLS MT CLEAR     48  41  76 SW12      30.31F
CHEYENNE WY    CLOUDY    41  31  67 N3        30.44R
SCOTTSBLUFF NE CLEAR     37  34  89 W5        30.37R
OMAHA NE       PTCLDY    50  39  66 W5        30.24S
DES MOINES IA  CLEAR     52  41  66 NW8       30.16R
DAVENPORT IA   SUNNY     53  45  74 W9        30.08S
CHICAGO IL     CLOUDY    58  48  69 W9        29.99S
EAU CLAIRE WI  CLOUDY    51  42  71 W15       29.87S
LA CROSSE WI   MOSUNNY   56  42  59 W16G26    29.95S
$$

  *****  SOME NATIONAL WEATHER *****

CITY           SKY/WX    TMP DP  RH WIND       PRES   REMARKS
LA GUARDIA NY  MOSUNNY   62  43  49 NE9       30.20S
RALEIGH NC     CLOUDY    66  61  84 VRB5      30.14S
ATLANTA GA     MOSUNNY   74  68  81 E6        30.10R
NEW ORLEANS LA MOSUNNY   80  75  84 CALM      30.02R
OKLAHOMA CITY  PTCLDY    59  48  67 N9        30.25R
ALBUQUERQUE NM PTCLDY    54  34  46 NE6       30.47R
SALT LAKE CITY CLEAR     50  44  80 SE3       30.41R
LOS ANGELES CA CLEAR     75  32  20 CALM      29.93R
BOISE ID       CLEAR     55  40  56 SE12      30.32F
SEATTLE WA     PTCLDY    55  51  86 N5        30.15F
$$

*** WEATHER ACROSS MANITOBA...SASKATCHEWAN AND ONTARIO ***
                ***ONTARIO***

CITY           SKY/WX    TMP DP  RH WIND       PRES   REMARKS
GERALDTON      PTSUNNY   54  54 100 S6        29.48F
THUNDER BAY    LGT RAIN  52  52 100 S3        29.46F FOG
SIOUX LOOKOUT  LGT RAIN  48  48 100 NW14G22   29.48S FOG
TORONTO        CLOUDY    61  52  72 SE8       29.91
BIG TROUT LK   LGT RAIN  54  52  94 E5        29.43S FOG
PICKLE LAKE    CLOUDY    54  54 100 SE6       29.39F
DRYDEN         LGT RAIN  48  46  93 W13G18    29.54S
KENORA         LGT RAIN  48  46  93 NW14G26   29.64F
$$
                *** MANITOBA***

CITY           SKY/WX    TMP DP  RH WIND       PRES   REMARKS
BRANDON        PTCLDY    39  34  81 W12       30.00S
DAUPHIN        CLEAR     45  36  70 W14       29.97S
ISLAND LAKE    LGT RAIN  50  48  93 NW20G29   29.59S
PILOT MOUND      N/A     43  36  75 W12G18      N/A
THE PAS        CLOUDY    50  41  71 NW13G25   29.98R
THOMPSON       LGT RAIN  50  48  93 NW10G17   29.78R
WINNIPEG       PTCLDY    45  41  87 W14       29.86R
LYNN LAKE      CLOUDY    48  43  81 NW12G21   29.93R
CHURCHILL      CLOUDY    45  43  93 NW17G30   29.64S
GILLAM         MOCLDY    48  45  87 N17G25    29.64R
$$
                ***SASKATCHEWAN***

CITY           SKY/WX    TMP DP  RH WIND       PRES   REMARKS
ESTEVAN        NOT AVBL
KINDERSLEY     PTCLDY    36  32  87 S3        30.18S
LLOYDMINSTER   PTCLDY    43  32  65 SW9       30.14F
PRINCE ALBERT  CLEAR     32  28  86 W2        30.13F
REGINA         CLEAR     34  32  93 W3        30.18R
YORKTON        CLEAR     39  36  87 W12       30.08S
N. BATTLEFORD  CLEAR     32  32 100 W2        30.19S
LA RONGE       CLEAR     36  34  93 W6        30.09S
SASKATOON      CLEAR     32  32 100 SW7       30.18S
SWIFT CURRENT  CLEAR     39  34  81 W12       30.19S
$$
NOTE: THESE ARE AUTOMATED STATIONS WITH LIMITED QUALITY CONTROL
      "FAIR" INDICATES FEW OR NO CLOUDS BELOW 12,000 FEET WITH NO
      SIGNIFICANT WEATHER AND/OR OBSTRUCTIONS TO VISIBILITY.
      SKY/WX - SKY CONDITION AND SIGNIFICANT WEATHER.
      TMP - AIR TEMPERATURE.    DP   - DEWPOINT TEMPERATURE.
      RH  - RELATIVE HUMIDITY.  PRES - PRESSURE.
      HX  - HEAT INDEX.         WCI  - WIND CHILL INDEX.
$




USA.gov is the U.S. government's official web portal to all federal, state and local government web resources and services.